Montpelier, VT

1:53 PM EDT on October 19, 2019 (GMT -0400)
Knapp State

Weather History for KMPV - August, 2019

Change the Weather History Date:

Friday, August 23, 2019

  Actual Average Record
Temperature  
Mean Temperature 60 °F 64 °F  
Max Temperature 69 °F 76 °F 84 °F (1948)
Min Temperature 51 °F 53 °F 37 °F (1988)
Degree Days  
Heating Degree Days 5 3  
Month to date heating degree days 27 43  
Since 1 June heating degree days 180 204  
Since 1 July heating degree days 36 83  
Cooling Degree Days 0 2  
Month to date cooling degree days 46 62  
Year to date cooling degree days 204 230  
Since 1 June cooling degree days 203 220  
Growing Degree Days 10 (Base 50)    
Moisture  
Dew Point 51 °F    
Average Humidity 75    
Maximum Humidity 93    
Minimum Humidity 51    
Precipitation  
Precipitation 0.00 in 0.11 in 1.94 in (1964)
Month to date precipitation 3.91 3.19  
Year to date precipitation 34.46 23.98  
Sea Level Pressure  
Sea Level Pressure 30.05 in    
Wind  
Wind Speed 5 mph ()    
Max Wind Speed 15 mph    
Max Gust Speed 21 mph    
Visibility 10.0 miles    
Events      
T = Trace of Precipitation, MM = Missing Value Source: Averaged Metar Reports

Daily Weather History Graph

Daily Weather History Graph

Search for Another Location

Airport or City:

Astronomy

Aug. 23, 2019 Rise Set
Actual Time 6:02 AM EDT 7:42 PM EDT
Civil Twilight 5:31 AM EDT 8:12 PM EDT
Nautical Twilight 4:54 AM EDT 8:49 PM EDT
Astronomical Twilight 4:14 AM EDT 9:29 PM EDT
Moon 11:50 PM EDT (8/23) 1:53 PM EDT (8/23)
Length of Visible Light 14h 40m
Length of Day
13h 39m
Waning Gibbous, 50% of the Moon is Illuminated
Aug 23
Waning Gibbous
Aug 30
New
Sep 5
First Quarter
Sep 14
Full
Sep 21
Last Quarter

Hourly Weather History & Observations

Time (EDT) Temp. Dew Point Humidity Pressure Visibility Wind Dir Wind Speed Gust Speed Precip Events Conditions
12:51 AM 55.9 °F 54.0 °F 93% 29.96 in 10.0 mi West 3.5 mph - N/A   Clear
1:51 AM 55.9 °F 52.0 °F 87% 29.97 in 10.0 mi WSW 3.5 mph - N/A   Scattered Clouds
2:51 AM 54.0 °F 52.0 °F 93% 29.97 in 10.0 mi WSW 3.5 mph - N/A   Scattered Clouds
3:51 AM 54.0 °F 51.1 °F 90% 29.97 in 10.0 mi SW 3.5 mph - N/A   Clear
4:51 AM 54.0 °F 52.0 °F 93% 29.97 in 10.0 mi Calm Calm - N/A   Clear
5:51 AM 53.1 °F 51.1 °F 93% 29.99 in 10.0 mi South 3.5 mph - N/A   Clear
6:51 AM 55.0 °F 53.1 °F 93% 30.02 in 10.0 mi Calm Calm - N/A   Clear
7:51 AM 57.9 °F 55.0 °F 90% 30.04 in 10.0 mi NNW 4.6 mph - N/A   Clear
8:51 AM 62.1 °F 55.0 °F 78% 30.04 in 10.0 mi NW 10.4 mph - N/A   Clear
9:51 AM 63.0 °F 54.0 °F 72% 30.05 in 10.0 mi WNW 12.7 mph - N/A   Partly Cloudy
10:51 AM 64.9 °F 53.1 °F 65% 30.06 in 10.0 mi NNW 12.7 mph - N/A   Scattered Clouds
2:51 PM 69.1 °F 50.0 °F 51% 30.06 in 10.0 mi WNW 9.2 mph 17.3 mph N/A   Mostly Cloudy
3:51 PM 66.9 °F 48.0 °F 51% 30.07 in 10.0 mi NW 10.4 mph 18.4 mph N/A   Scattered Clouds
4:51 PM 66.0 °F 48.9 °F 54% 30.07 in 10.0 mi NW 8.1 mph - N/A   Mostly Cloudy
5:51 PM 66.0 °F 48.0 °F 52% 30.09 in 10.0 mi NW 10.4 mph - N/A   Partly Cloudy
6:51 PM 64.0 °F 48.9 °F 58% 30.10 in 10.0 mi North 6.9 mph - N/A   Partly Cloudy
7:51 PM 60.1 °F 48.0 °F 64% 30.11 in 10.0 mi NNW 8.1 mph - N/A   Clear
8:51 PM 57.0 °F 48.9 °F 74% 30.12 in 10.0 mi NW 4.6 mph - N/A   Clear
9:51 PM 57.0 °F 48.0 °F 72% 30.12 in 10.0 mi WNW 5.8 mph - N/A   Clear
10:51 PM 53.1 °F 46.9 °F 80% 30.13 in 10.0 mi Calm Calm - N/A   Clear
11:51 PM 54.0 °F 48.0 °F 80% 30.14 in 10.0 mi Calm Calm - N/A   Scattered Clouds